Weather History for Chanute, KS

Change the Weather History Date:

Tuesday, January 1, 2013

  Actual Average Record
Temperature  
Mean Temperature 21 °F 32 °F  
Max Temperature 30 °F 42 °F 73 °F (2006)
Min Temperature 11 °F 23 °F -8 °F (1974)
Degree Days  
Heating Degree Days 44 33  
Month to date heating degree days 44 33  
Since 1 July heating degree days 1447 1826  
Cooling Degree Days 0 0  
Month to date cooling degree days 0 0  
Year to date cooling degree days 0 0  
Moisture  
Dew Point 19 °F    
Average Humidity 77    
Maximum Humidity 92    
Minimum Humidity 62    
Precipitation  
Precipitation T in 0.04 in 0.89 in (1936)
Month to date precipitation T 0.04  
Year to date precipitation T 0.04  
Sea Level Pressure  
Sea Level Pressure 30.22 in    
Wind  
Wind Speed 7 mph (North)    
Max Wind Speed 17 mph    
Max Gust Speed 23 mph    
Visibility 7 miles    
Events Snow    
T = Trace of Precipitation, MM = Missing Value Source: NWS Daily Summary

Daily Weather History Graph

Daily Weather History Graph

Search for Another Location

Airport:

Trip Planner

Search our weather history database for the weather conditions in past years. The results will help you decide how hot, cold, wet, or windy it might be!

Date:

Astronomy

Jan. 01, 2013 Rise Set
Actual Time 7:37 AM CST 5:14 PM CST
Civil Twilight 7:07 AM CST 5:43 PM CST
Nautical Twilight 6:35 AM CST 6:16 PM CST
Astronomical Twilight 6:03 AM CST 6:48 PM CST
Moon 9:40 PM CST (1/1) 9:54 AM CST (1/1)
Length of Visible Light 10h 35m
Length of Day
9h 37m
Waning Gibbous, 83% of the Moon is Illuminated
Jan 1
Waning Gibbous
Jan 4
Last Quarter
Jan 11
New
Jan 18
First Quarter
Jan 26
Full

Hourly Weather History & Observations

Time (CST) Temp. Windchill Dew Point Humidity Pressure Visibility Wind Dir Wind Speed Gust Speed Precip Events Conditions
12:05 AM 28.4 °F 18.5 °F 26.6 °F 93% 30.12 in 4.0 mi NNE 11.5 mph - 0.00 in   Overcast
12:52 AM 28.0 °F 17.0 °F 25.0 °F 88% 30.16 in 6.0 mi NNE 13.8 mph - 0.00 in   Overcast
1:20 AM 26.6 °F 15.7 °F 24.8 °F 93% 30.14 in 6.0 mi NNE 12.7 mph - N/A   Overcast
1:42 AM 26.6 °F 17.5 °F 24.8 °F 93% 30.12 in 3.0 mi NNE 9.2 mph - 0.00 in Snow Light Snow
1:49 AM 26.6 °F 16.8 °F 24.8 °F 93% 30.13 in 2.0 mi North 10.4 mph - 0.00 in Snow Light Snow
1:52 AM 27.0 °F 16.1 °F 25.0 °F 92% 30.15 in 2.0 mi North 12.7 mph 17.3 mph 0.00 in Snow Light Snow
2:03 AM 26.6 °F 15.7 °F 24.8 °F 93% 30.12 in 2.5 mi NNE 12.7 mph - 0.00 in   Overcast
2:07 AM 26.6 °F 15.7 °F 24.8 °F 93% 30.13 in 3.0 mi NNE 12.7 mph - 0.00 in   Overcast
2:15 AM 26.6 °F 14.7 °F 24.8 °F 93% 30.12 in 2.5 mi NNE 15.0 mph - 0.00 in Snow Light Snow
2:25 AM 26.6 °F 15.2 °F 24.8 °F 93% 30.12 in 2.5 mi NNE 13.8 mph - 0.00 in Snow Light Snow
2:47 AM 26.6 °F 16.8 °F 24.8 °F 93% 30.12 in 2.5 mi NNE 10.4 mph - 0.00 in Snow Light Snow
2:52 AM 27.0 °F 15.6 °F 24.1 °F 89% 30.14 in 2.5 mi NNE 13.8 mph - 0.00 in Snow Light Snow
3:02 AM 26.6 °F 17.5 °F 24.8 °F 93% 30.14 in 3.0 mi NE 9.2 mph - 0.00 in Snow Light Snow
3:52 AM 26.1 °F 16.8 °F 23.0 °F 88% 30.16 in 6.0 mi North 9.2 mph - 0.00 in   Overcast
4:52 AM 25.0 °F 14.2 °F 21.9 °F 88% 30.17 in 8.0 mi North 11.5 mph - N/A   Overcast
5:52 AM 25.0 °F 19.3 °F 21.9 °F 88% 30.21 in 8.0 mi North 4.6 mph - N/A   Overcast
6:52 AM 23.0 °F 13.1 °F 19.9 °F 88% 30.25 in 7.0 mi North 9.2 mph - N/A   Overcast
7:52 AM 23.0 °F 11.7 °F 19.9 °F 88% 30.27 in 7.0 mi North 11.5 mph - N/A   Overcast
8:52 AM 21.9 °F 11.0 °F 19.0 °F 89% 30.27 in 6.0 mi North 10.4 mph - 0.00 in   Overcast
9:25 AM 21.2 °F 8.9 °F 17.6 °F 86% 30.25 in 9.0 mi North 12.7 mph - N/A   Overcast
9:52 AM 21.0 °F 9.3 °F 17.1 °F 85% 30.29 in 10.0 mi North 11.5 mph - N/A   Overcast
10:52 AM 21.0 °F 11.4 °F 16.0 °F 81% 30.32 in 10.0 mi North 8.1 mph - N/A   Overcast
11:52 AM 21.0 °F 9.9 °F 16.0 °F 81% 30.30 in 10.0 mi North 10.4 mph - N/A   Overcast
12:52 PM 21.9 °F 11.0 °F 16.0 °F 78% 30.30 in 10.0 mi North 10.4 mph - N/A   Overcast
1:52 PM 23.0 °F 11.7 °F 17.1 °F 78% 30.29 in 10.0 mi North 11.5 mph - N/A   Overcast
2:52 PM 24.1 °F 15.2 °F 16.0 °F 71% 30.29 in 10.0 mi North 8.1 mph - N/A   Overcast
3:52 PM 24.1 °F 15.2 °F 14.0 °F 65% 30.28 in 10.0 mi North 8.1 mph - N/A   Scattered Clouds
4:52 PM 23.0 °F 17.0 °F 14.0 °F 68% 30.30 in 10.0 mi North 4.6 mph - N/A   Clear
5:52 PM 21.0 °F - 14.0 °F 74% 30.28 in 10.0 mi Calm Calm - N/A   Clear
6:52 PM 17.1 °F 11.7 °F 14.0 °F 88% 30.34 in 10.0 mi NW 3.5 mph - N/A   Clear
7:52 PM 14.0 °F - 10.9 °F 88% 30.32 in 10.0 mi Calm Calm - N/A   Clear
8:52 PM 12.9 °F - 9.0 °F 84% 30.32 in 10.0 mi Calm Calm - N/A   Clear
9:52 PM 12.9 °F - 9.0 °F 84% 30.31 in 10.0 mi Calm Calm - N/A   Clear
10:52 PM 12.0 °F - 8.1 °F 84% 30.32 in 10.0 mi Calm Calm - N/A   Clear
11:52 PM 12.9 °F 5.2 °F 9.0 °F 84% 30.32 in 10.0 mi NW 4.6 mph - N/A   Clear